Погода в Серове

Россия / Воронежская область     50°46′38″N   40°00′19″E
темп.,
°C
ветер,
м/с
пор.,
м/с
влажн.,
%
обл.,
%
осадки,
мм/ч
давл.,
гПа
погр.,
м
12 мая, ср
ср1200:00+8в41380100 0.0 1023455
03:00+7всв5137976 0.0 1022353
06:00+8в41081100 0.0 1023349
09:00+11всв576784 0.0 1021400
12:00+15в4554100 0.1 10191539
15:00+15вюв575783 0.8 10181635
18:00+14юв48717 0.8 1017813
21:00+10юв338598 1.0 101745
13 мая, чт
чт1300:00+9вюв358835 0.0 101786
03:00+10вюв398693 0.0 1017181
06:00+10вюв4128497 0.0 1016293
09:00+16юв586894 0.0 1016568
12:00+20ю57558 0.0 10151555
15:00+22ююв575152 0.0 10152120
18:00+20ю3667100 0.3 1015228
21:00+15юв228184 0.6 101611
14 мая, пт
пт1400:00+15юв2283100 0.0 101613
03:00+14вюв34865 0.0 101653
06:00+14вюв388575 0.0 1015154
09:00+21юв696867 0.0 1015581
12:00+24ююв6854100 0.0 10141119
15:00+26ююв5753100 0.0 10131255
18:00+25ююв236799 0.0 101379
21:00+19юв358178 0.0 101268
15 мая, сб
сб1500:00+17юв368398 0.0 101292
03:00+16юв410866 0.0 1011187
06:00+16ююв511815 0.0 1012284
09:00+19ююв5673100 0.0 1012415
12:00+23ююв676384 0.0 1012899
15:00+26ю5658100 0.0 10121602
18:00+23ююз3572100 2.2 1012166
21:00+19ююз117984 2.3 101211
16 мая, вс
вс1600:00+17с228613 0.0 101211
03:00+16ссз229031 0.0 101329
06:00+16с248986 0.0 1013119
09:00+21св337596 0.0 1013527
12:00+25всв336235 0.0 10121334
15:00+26юв444899 0.2 10121642
18:00+25вюв2256100 0.0 101126
21:00+19всв33625 0.0 101120